Location: Asheville, NC
(35.6000°N, 82.5500°W)
Time: 18:25:07
(UTC-04:00)

CUTE-I - Pass Details

Date: 06 January 2018
Orbit: 812 x 824 km, 98.7° (Epoch: 19 July)

Event Time Altitude Azimuth Distance (km) Brightness Sun altitude
Rises 18:32:12 0° 180° (S) 3,333 ? -12.0°
Reaches altitude 10° 18:34:37 10° 186° (S) 2,402 ? -12.5°
Maximum altitude 18:39:44 48° 260° (W) 1,059 ? -13.5°
Drops below altitude 10° 18:44:53 10° 334° (NNW) 2,409 ? -14.5°
Sets 18:47:19 0° 341° (NNW) 3,343 ? -15.0°
